[[{"header":{"parameterUnit":"m.s-1","parameterCategory":1,"la1":30.2991,"la2":30.254,"lo1":-89.0895,"lo2":-89.0444,"dy":0.0017,"dx":0.0017,"nx":28,"ny":28,"refTime":"2024-07-20T03:00:00:Z","depth":0,"parameterNumber":2,"parameterNumberName":"U-component_of_WINDS"},"data":[0,0,0,0,0,0,0,0,0,0,0,0,0,0,0,0,0,0,0,0,0,0,0,0,0,0,0,0,0,0,0,0,0,0,0,0,0,0,0,0,0,0,0,0,0,0,0,0,0,0,0,0,0,0,0,0,0,0,1.6508,1.6508,0,1.6468,1.6468,1.6467,1.641,1.6409,1.6408,1.6407,1.6366,1.6366,1.6366,0,0,0,0,0,0,0,0,0,0,0,0,0,1.6535,1.6535,1.6508,1.6508,1.6507,1.6468,1.6468,1.6467,1.641,1.6409,1.6407,1.6406,1.6367,1.6366,1.6366,0,0,0,0,0,0,0,0,0,0,0,0,0,1.6512,1.6535,1.6508,1.6474,1.6471,1.6468,1.6468,1.6467,1.641,1.6409,1.6407,1.6406,1.6367,1.6366,1.6366,1.6395,0,0,1.6365,1.6365,0,0,0,0,0,0,0,0,1.6513,1.6511,1.648,1.6476,1.6472,1.6442,1.6462,1.6443,1.641,1.6433,1.6407,1.6405,1.6393,1.6391,1.6386,1.6393,1.6391,1.6365,1.6365,1.6365,1.6365,0,0,0,0,0,0,0,1.6515,1.6512,1.6492,1.6479,1.6475,1.646,1.6455,1.6458,1.6422,1.6431,1.6427,1.6423,1.6391,1.6387,1.6385,1.639,1.6365,1.6365,1.6365,1.6365,1.6415,1.6417,0,0,0,0,0,0,1.6522,1.6514,1.6494,1.6491,1.649,1.6461,1.6456,1.6454,1.6422,1.6415,1.6424,1.642,1.6388,1.6385,1.6383,1.6412,1.6365,1.6365,1.6365,1.6414,1.6415,1.6417,0,0,0,0,0,0,1.6523,1.652,1.6495,1.6501,1.6497,1.6462,1.646,1.6454,1.6449,1.6416,1.641,1.6426,1.6386,1.6384,1.6391,1.641,1.6365,1.6365,1.6412,1.6414,1.6416,1.6471,0,0,0,0,0,0,1.6524,1.6521,1.6532,1.6502,1.6497,1.6505,1.6462,1.6454,1.6449,1.6444,1.6417,1.6411,1.6385,1.6392,1.6391,1.6409,1.6365,1.641,1.6413,1.6416,1.6468,1.6475,1.6482,0,0,0,0,0,1.6525,1.655,1.6533,1.653,1.651,1.6506,1.6503,1.6472,1.6451,1.6461,1.6439,1.6412,1.6409,1.6393,1.6392,1.641,1.6409,1.6412,1.6415,1.6465,1.6474,1.6481,0,0,0,0,0,0,1.6583,1.6545,1.6526,1.6542,1.6527,1.6496,1.6508,1.6483,1.6475,1.647,1.6433,1.6427,1.6439,1.6425,1.6409,1.6434,1.6404,1.6408,1.6442,1.6451,1.6457,1.646,1.6364,0,0,0,0,0,1.6598,1.6598,1.6565,1.6582,1.6576,1.6543,1.654,1.6518,1.6501,1.6495,1.6474,1.6459,1.6454,1.6452,1.6446,1.6466,1.6458,1.6477,1.6484,1.649,1.6493,1.65,1.6507,1.6428,1.6428,1.6428,0,0,1.6628,1.6608,1.661,1.6593,1.6579,1.6579,1.6538,1.6541,1.654,1.6495,1.65,1.6485,1.6466,1.6479,1.6484,1.6468,1.6513,1.6494,1.6499,1.6499,1.6504,1.6511,1.6518,1.643,1.643,1.6429,0,0,1.6683,1.6669,1.668,1.6666,1.6645,1.6623,1.6626,1.6598,1.6586,1.659,1.6556,1.6555,1.6548,1.6535,1.6527,1.6576,1.6549,1.6575,1.6611,1.6618,1.6624,1.6629,1.6644,1.665,1.6578,1.6578,1.6579,0,1.6723,1.6722,1.6689,1.6693,1.6686,1.6645,1.6655,1.6644,1.6622,1.6618,1.6601,1.659,1.6574,1.6582,1.6594,1.659,1.6591,1.6577,1.6626,1.6631,1.6635,1.6649,1.6655,1.6581,1.6581,1.6581,1.6581,0,1.6771,1.6771,1.6783,1.6762,1.6756,1.6764,1.6731,1.673,1.6708,1.6687,1.6691,1.6671,1.6659,1.666,1.6639,1.6665,1.6655,1.6633,1.6601,1.6646,1.6658,1.6664,1.6586,1.6585,1.6584,1.6583,0,0,1.6861,1.6821,1.6826,1.6814,1.6788,1.6787,1.6792,1.6779,1.6777,1.6764,1.6766,1.6761,1.6739,1.673,1.6708,1.6714,1.675,1.669,1.6689,1.67,1.6775,1.679,1.6797,1.6734,1.6735,1.6735,1.6775,0,1.6909,1.6915,1.6885,1.6898,1.6896,1.6856,1.686,1.6844,1.6825,1.6821,1.68,1.6795,1.6768,1.6762,1.6767,1.6745,1.6765,1.6742,1.6734,1.6734,1.6737,1.6804,1.682,1.6859,1.678,1.6781,1.6782,0,1.6965,1.6953,1.6966,1.6937,1.6935,1.6939,1.6924,1.692,1.6901,1.6886,1.6876,1.685,1.6851,1.6823,1.6824,1.681,1.6805,1.6793,1.6794,1.679,1.6759,1.6799,1.6871,1.6876,1.6789,1.6789,1.6788,0,1.7026,1.7014,1.7019,1.7011,1.6978,1.6981,1.6967,1.6946,1.694,1.6927,1.6922,1.6911,1.6904,1.6895,1.6865,1.6848,1.6869,1.6839,1.6855,1.6856,1.686,1.686,1.693,1.6861,1.6861,1.6861,1.6861,0,1.7081,1.709,1.7045,1.7049,1.7057,1.7022,1.7031,1.7014,1.6995,1.6993,1.696,1.6959,1.6921,1.6915,1.6893,1.6896,1.6894,1.6881,1.6874,1.6883,1.6884,1.6877,1.6873,1.6862,1.6862,1.6862,1.6862,0,1.715,1.7121,1.7123,1.7091,1.7083,1.709,1.7062,1.7064,1.7042,1.7041,1.7038,1.7005,1.6997,1.6967,1.6952,1.6936,1.6946,1.6935,1.6952,1.6947,1.6965,1.6963,1.7031,1.7037,1.6967,1.6968,1.6968,0,1.7186,1.7191,1.7159,1.7155,1.7143,1.7137,1.713,1.7096,1.709,1.7068,1.7071,1.706,1.7049,1.7038,1.7012,1.7,1.6987,1.7012,1.6985,1.6992,1.6984,1.6983,1.6982,1.7017,1.7018,1.7019,1.7019,0,1.7251,1.7236,1.7227,1.7213,1.7205,1.7193,1.7178,1.7177,1.7139,1.7134,1.7125,1.7116,1.71,1.7089,1.7072,1.7058,1.7031,1.7028,1.7031,1.7038,1.7047,1.704,1.6965,1.7026,1.7025,1.7025,1.7025,1.7024,1.7303,1.7305,1.7282,1.7273,1.7258,1.7245,1.7243,1.7221,1.7213,1.7196,1.7177,1.717,1.7148,1.7123,1.7111,1.7104,1.709,1.7095,1.7095,1.7096,1.7099,1.705,1.7101,1.7101,1.7101,1.71,1.71,0,1.7364,1.7347,1.7339,1.7319,1.7311,1.7288,1.727,1.7265,1.7259,1.7241,1.7231,1.7219,1.7208,1.7181,1.7167,1.7166,1.7154,1.7164,1.7162,1.7159,1.7114,1.7112,1.7174,1.7174,1.7174,1.7174,1.7174,1.7174,1.7395,1.7397,1.7379,1.7372,1.7355,1.7347,1.7339,1.7326,1.7311,1.7299,1.729,1.7272,1.725,1.7234,1.7222,1.7214,1.721,1.7223,1.7211,1.7169,1.7162,1.7156,1.7153,1.7223,1.7223,1.7256,1.7256,1.7257]},{"header":{"parameterUnit":"m.s-1","parameterCategory":1,"la1":30.2991,"la2":30.254,"lo1":-89.0895,"lo2":-89.0444,"dy":0.0017,"dx":0.0017,"nx":28,"ny":28,"refTime":"2024-07-20T03:00:00:Z","depth":0,"parameterNumber":3,"parameterNumberName":"V-component_of_WINDS"},"data":[0,0,0,0,0,0,0,0,0,0,0,0,0,0,0,0,0,0,0,0,0,0,0,0,0,0,0,0,0,0,0,0,0,0,0,0,0,0,0,0,0,0,0,0,0,0,0,0,0,0,0,0,0,0,0,0,0,0,4.7148,4.7149,0,4.7297,4.7299,4.73,4.7287,4.7285,4.7283,4.7281,4.7426,4.7432,4.7438,0,0,0,0,0,0,0,0,0,0,0,0,0,4.6842,4.6848,4.7147,4.7149,4.7151,4.7297,4.7299,4.7301,4.7288,4.7285,4.7282,4.728,4.7424,4.7431,4.7438,0,0,0,0,0,0,0,0,0,0,0,0,0,4.6981,4.685,4.7147,4.7163,4.7165,4.7296,4.7299,4.7301,4.7288,4.7285,4.7282,4.7279,4.7422,4.7431,4.7439,4.7562,0,0,4.7467,4.7471,0,0,0,0,0,0,0,0,4.6973,4.6992,4.7158,4.7162,4.7165,4.727,4.7244,4.7388,4.7289,4.7242,4.7281,4.7277,4.7377,4.7389,4.7424,4.7569,4.7575,4.7468,4.7473,4.7477,4.7479,0,0,0,0,0,0,0,4.6964,4.6986,4.7206,4.7161,4.7165,4.7159,4.7175,4.7271,4.7326,4.7245,4.7245,4.7263,4.7378,4.7416,4.7427,4.7577,4.7467,4.7475,4.7481,4.7484,4.7826,4.7829,0,0,0,0,0,0,4.6952,4.6978,4.7202,4.7211,4.7059,4.7167,4.7185,4.724,4.7325,4.7335,4.7266,4.7262,4.7402,4.7417,4.7432,4.7579,4.7477,4.7485,4.749,4.7822,4.7827,4.7831,0,0,0,0,0,0,4.6945,4.6972,4.7196,4.7094,4.7122,4.7176,4.7238,4.7245,4.7283,4.734,4.7349,4.7295,4.74,4.742,4.753,4.7584,4.7489,4.7497,4.7818,4.7824,4.7829,4.7875,0,0,0,0,0,0,4.6936,4.697,4.7019,4.7096,4.7128,4.7293,4.7241,4.725,4.7299,4.7295,4.737,4.7379,4.7399,4.7516,4.7539,4.7595,4.7504,4.7813,4.782,4.7827,4.7869,4.7881,4.7892,0,0,0,0,0,4.6926,4.7025,4.7022,4.7049,4.7192,4.7297,4.7315,4.7337,4.7304,4.7352,4.7388,4.7377,4.7575,4.7528,4.7553,4.7612,4.781,4.7818,4.7826,4.7864,4.7879,4.7892,0,0,0,0,0,0,4.6952,4.7036,4.7033,4.7161,4.7222,4.7294,4.7356,4.7353,4.7423,4.7417,4.7439,4.7456,4.7566,4.76,4.7546,4.7733,4.7687,4.7701,4.7707,4.7722,4.7734,4.7722,4.7512,0,0,0,0,0,4.6973,4.7054,4.7122,4.7228,4.7259,4.7303,4.7349,4.7361,4.7424,4.7449,4.7494,4.7553,4.7628,4.7677,4.775,4.7874,4.7888,4.7927,4.7938,4.7948,4.7959,4.8023,4.804,4.7858,4.7858,4.7858,0,0,4.7017,4.7073,4.7122,4.7235,4.7284,4.7364,4.7324,4.7412,4.747,4.7462,4.7568,4.7603,4.767,4.7786,4.784,4.7818,4.8012,4.7959,4.7966,4.7971,4.8033,4.805,4.8066,4.7864,4.7863,4.7862,0,0,4.7137,4.7189,4.7282,4.7332,4.7406,4.7434,4.7456,4.7529,4.7552,4.766,4.7654,4.7722,4.7853,4.79,4.7941,4.8076,4.8067,4.8099,4.8159,4.8222,4.8236,4.8249,4.8294,4.831,4.811,4.811,4.811,0,4.7181,4.7305,4.733,4.7417,4.7465,4.7463,4.7555,4.7601,4.7695,4.7726,4.7701,4.7863,4.7908,4.8034,4.8067,4.8101,4.8124,4.809,4.8233,4.8246,4.8258,4.8301,4.8318,4.8113,4.8113,4.8113,4.8112,0,4.7354,4.7439,4.7505,4.7597,4.7652,4.7741,4.7776,4.7829,4.7835,4.7864,4.7971,4.8026,4.8108,4.8139,4.8146,4.8265,4.8249,4.8228,4.8182,4.8278,4.8319,4.8336,4.8118,4.8117,4.8116,4.8115,0,0,4.7496,4.7599,4.7623,4.7663,4.7744,4.7809,4.7896,4.7978,4.8021,4.8085,4.8156,4.8265,4.8246,4.8293,4.8304,4.836,4.8459,4.8332,4.8334,4.8351,4.8589,4.8603,4.8622,4.8454,4.8457,4.846,4.8583,0,4.7622,4.778,4.7803,4.7941,4.8017,4.8015,4.8091,4.8146,4.8176,4.8242,4.8273,4.8349,4.832,4.8347,4.8402,4.8436,4.8507,4.8427,4.8517,4.852,4.8498,4.8644,4.8659,4.8772,4.8599,4.8602,4.8604,0,4.7791,4.7861,4.8006,4.8074,4.8107,4.8175,4.825,4.8316,4.8377,4.8394,4.8445,4.845,4.8536,4.8487,4.8605,4.855,4.8588,4.861,4.8614,4.8622,4.8567,4.8653,4.881,4.8825,4.863,4.8628,4.8626,0,4.7876,4.8006,4.811,4.8144,4.8227,4.8274,4.831,4.8369,4.8416,4.8481,4.851,4.8584,4.8624,4.8679,4.8701,4.8664,4.8816,4.877,4.8829,4.8829,4.886,4.8857,4.9023,4.8888,4.8888,4.8888,4.8887,0,4.8014,4.8102,4.8149,4.8212,4.8309,4.8334,4.8428,4.8462,4.8514,4.8581,4.8583,4.8645,4.8673,4.8738,4.8756,4.8848,4.8867,4.888,4.8883,4.8879,4.8877,4.8903,4.8894,4.8892,4.8891,4.889,4.889,0,4.8125,4.8161,4.8272,4.8341,4.836,4.8429,4.8486,4.8545,4.8573,4.8658,4.8679,4.8722,4.8798,4.8827,4.892,4.8932,4.9038,4.9036,4.9018,4.9018,4.9075,4.9068,4.926,4.9285,4.9137,4.9138,4.9139,0,4.821,4.8278,4.8354,4.84,4.8438,4.8512,4.856,4.8586,4.8635,4.8709,4.8758,4.8835,4.8898,4.902,4.9057,4.9128,4.9126,4.9188,4.9136,4.9128,4.9123,4.9118,4.9123,4.9197,4.9199,4.92,4.9201,0,4.8355,4.8369,4.8439,4.8515,4.8572,4.8633,4.8691,4.8728,4.8761,4.8816,4.8895,4.8944,4.9039,4.9114,4.9186,4.9219,4.9214,4.9217,4.9234,4.9229,4.9215,4.9221,4.9042,4.9212,4.9211,4.921,4.921,4.9209,4.8454,4.8513,4.8576,4.8653,4.87,4.8753,4.8812,4.8847,4.8915,4.8995,4.9005,4.909,4.9146,4.9242,4.9279,4.9343,4.9325,4.9351,4.9357,4.9362,4.9365,4.9206,4.9356,4.9356,4.9355,4.9355,4.9355,0,4.8598,4.8637,4.8708,4.879,4.885,4.8843,4.8906,4.8955,4.903,4.9085,4.9146,4.9235,4.9308,4.935,4.9422,4.9464,4.9464,4.9482,4.9478,4.9485,4.9377,4.9355,4.9481,4.9481,4.9481,4.9481,4.9481,4.9481,4.8679,4.8778,4.8798,4.8918,4.8956,4.9041,4.9077,4.9125,4.9168,4.9269,4.9329,4.9358,4.9406,4.948,4.9545,4.9555,4.958,4.96,4.9608,4.9506,4.9493,4.9481,4.9459,4.9606,4.9606,4.971,4.9711,4.9712]}]]